Regional Weather Roundup
Issued by NWS Bismarck, ND

Home | Current Version | Previous Version | Text Only | Print | Product List | Glossary On
Versions: 1 2 3 4 5 6 7 8 9 10 11 12 13 14 15 16 17 18 19 20 21 22 23 24 25 26 27 28 29 30 31 32 33 34 35 36 37 38 39 40 41 42 43 44 45 46 47 48 49 50
000
ASUS43 KBIS 020620
RWRBIS

NWR BROADCAST TEXT
NATIONAL WEATHER SERVICE BISMARCK ND
100 AM CDT THU APR 02 2015

NOTE: "FAIR" INDICATES FEW OR NO CLOUDS BELOW 12,000 FEET WITH NO
SIGNIFICANT WEATHER AND/OR OBSTRUCTIONS TO VISIBILITY.


CITY           SKY/WX    TMP DP  RH WIND       PRES   REMARKS
WILLISTON      CLEAR     41  23  48 W14       29.64F
MINOT          CLEAR     38  23  55 SW8       29.59F
MINOT AFB      CLEAR     37  27  67 SW13      29.58F
BISMARCK       PTCLDY    40  22  48 W7        29.70F
DICKINSON      CLEAR     35  20  54 SW17      29.71F
GARRISON         N/A     33  25  72 SW10      29.65F
HETTINGER ARPT CLEAR     28  19  69 W6        29.78F
JAMESTOWN      PTCLDY    38  26  62 W9        29.64S
BEACH          FAIR      34  18  51 SW13      29.74F
CARRINGTON     FAIR      36  27  69 W15       29.63F
CROSBY         FAIR      37  27  65 W16G23    29.58S
HARVEY         FAIR      39  27  60 W16       29.62S
HAZEN          FAIR      34  23  64 SW3       29.69F
LINTON         FAIR      36  25  64 W5        29.72F
MANDAN         FAIR      37  23  56 W13       29.70F
OAKES            N/A     43  30  61 W10G17    29.68R
TIOGA          FAIR      39  25  56 W20G26    29.62F
WATFORD CITY   FAIR      34  25  69 SW12      29.65S
$$

CITY           SKY/WX    TMP DP  RH WIND       PRES   REMARKS
GRAND FORKS    CLEAR     42  31  64 W12       29.58R
GRAND FORKS AF CLEAR     40  30  66 W8        29.58S
DEVILS LAKE    CLEAR     36  25  64 W12       29.58S
FARGO          PTCLDY    42  29  59 SW7       29.62F
CANDO          FAIR      34  28  80 W12       29.57F
CAVALIER       FAIR      39  32  75 W8        29.54S
GWINNER        CLEAR     45  28  53 W9          N/A
ROLLA          FAIR      34  27  75 W13       29.55F
WALHALLA         N/A     41  30  65 CALM      29.53F
$$

CITY           SKY/WX    TMP DP  RH WIND       PRES   REMARKS
ABERDEEN       MOCLDY    47  25  42 NW9       29.76R
MOBRIDGE       MOCLDY    35  23  61 NW7       29.71F
BUFFALO          N/A     30  15  53 W9        29.75F
RAPID CITY     CLEAR     34  13  41 W9        29.85S
GLASGOW        PTCLDY    38  24  57 W26G36    29.72S
SIDNEY         CLEAR     43  19  39 W18G28    29.69S
WOLF POINT     PTCLDY    41  24  51 W17       29.70S
GLENDIVE         N/A     36  19  51 W17       29.75S
MILES CITY     PTCLDY    37  11  34 W13       29.82R
BAKER          CLEAR     39  16  39 W16       29.78F
$$

CITY           SKY/WX    TMP DP  RH WIND       PRES   REMARKS
BILLINGS       PTCLDY    38  16  40 W22G32    29.91R
GREAT FALLS    CLOUDY    33  22  63 N10       29.99R
REGINA         FLURRIES  34  32  93 W24       29.45F
ESTEVAN        PTCLDY    36  27  69 SW14      29.54F
$$



USA.gov is the U.S. government's official web portal to all federal, state and local government web resources and services.